Flag for Canada Weather past 2 weeks in Belleville, Ontario, Canada

Now
3 °F

Clear.


Feels Like: -9 °F
Forecast: -7 / 15 °F
Wind: 7 mph from Northwest

Location: Trenton

Current Time: Jan 30, 2015 at 11:02:33 PM

Latest Report: Jan 30, 2015 at 10:00 PM


Visibility: 15 mi

Pressure: 30.35 "Hg

Humidity: 66%

Dew point: -6 °F

Location of BellevilleLocation

Historic Weather in Belleville — Graph

°F

Belleville temperature yesterday

Maximum temperature yesterday: 32 °F (at 2:00 PM)
Minimum temperature yesterday: 5 °F (at 1:00 AM)
Average temperature yesterday: 21 °F

Past Weeks' High & Low Weather Summary

 TemperatureHumidityPressure
High37 °F (Jan 18, 4:00 AM)100% (Jan 29, 8:00 PM)30.40 "Hg (Jan 29, 8:00 PM)
Low-6 °F (Jan 17, 4:00 AM)20% (Jan 28, 3:00 PM)29.42 "Hg (Jan 24, 11:00 PM)
Average19 °F65%30.01 "Hg
* Reported Jan 15 9:00 PM — Jan 30 9:00 PM, Belleville, Weather by CustomWeather, © 2014

Note: Actual official high and low records may vary slightly from our data, if they occured in-between our weather recording intervals... More about our weather records

Advertising

Belleville weather history for previous 24 hours

 ConditionsComfort  
Time TempWeatherWind HumidityBarometerVisibility
9:00 PM
Jan 30
7 °FClear.12 mph51%30.33 "Hg15 mi
8:00 PM9 °FClear.10 mph56%30.31 "Hg15 mi
7:00 PM9 °FClear.7 mph61%30.29 "Hg15 mi
6:00 PM10 °FClear.9 mph56%30.26 "Hg15 mi
5:00 PM14 °FLow level haze.10 mph48%30.24 "Hg15 mi
4:00 PM14 °FLow level haze.16 mph52%30.20 "Hg15 mi
3:00 PM16 °FLow level haze.14 mph53%30.18 "Hg15 mi
2:00 PM16 °FLow level haze.13 mph53%30.15 "Hg15 mi
1:00 PM14 °FLow level haze.15 mph62%30.14 "Hg15 mi
12:00 PM14 °FLow level haze.12 mph62%30.14 "Hg15 mi
11:00 AM14 °FPartly sunny.13 mph62%30.13 "Hg15 mi
10:00 AM12 °FPartly sunny.16 mph67%30.10 "Hg15 mi
9:00 AM14 °FPartly sunny.13 mph73%30.07 "Hg15 mi
8:00 AM18 °FOvercast.8 mph68%30.03 "Hg15 mi
7:00 AM21 °FMostly cloudy.17 mph74%29.97 "Hg15 mi
6:00 AM27 °FMostly cloudy.10 mph74%29.94 "Hg15 mi
5:00 AM27 °FSnow flurries. Mostly cloudy.12 mph80%29.91 "Hg10 mi
4:00 AM27 °FSnow flurries. Mostly cloudy.8 mph86%29.88 "Hg8 mi
3:00 AM27 °FSnow flurries. Mostly cloudy.7 mph86%29.85 "Hg8 mi
2:00 AM27 °FOvercast.8 mph93%29.83 "Hg15 mi
1:00 AM28 °FLight snow. Overcast.8 mph86%29.80 "Hg3 mi
12:00 AM28 °FLight snow. Overcast.10 mph93%29.78 "Hg3 mi
11:00 PM
Jan 29
28 °FLight snow. Overcast.10 mph100%29.76 "Hg1 mi
Weather by CustomWeather, © 2014

See weather overviewHow to use our weather pages